Hourly Data Report for February 16, 2017

All times are specified in Local Standard Time (LST). Add 1 hour to adjust for Daylight Saving Time where and when it is observed.

TORONTO CITY
ONTARIO

43°40'00.000" N
79°24'00.000" W
112.50 m
6158355
71508
XTO

Download Data

Hourly Data (February 2017)
Hourly Data Report for February 16, 2017
TIME Temp Definition
°C
Dew Point Definition
°C
Rel Hum Definition
%
Wind Dir Definition
10's deg

Wind Spd Definition
km/h
Visibility Definition
km
Stn Press Definition
kPa
Hmdx Definition


Wind Chill Definition


Weather Definition


00:00 -4.6 -8.7 73 LegendMM LegendMM   99.09     LegendNANA
01:00 -5.0 -8.0 79 LegendMM LegendMM   99.10     LegendNANA
02:00 -5.2 -8.9 75 LegendMM LegendMM   99.14     LegendNANA
03:00 -6.6 -10.8 72 LegendMM LegendMM   99.18     LegendNANA
04:00 -7.4 -11.4 73 LegendMM LegendMM   99.21     LegendNANA
05:00 -8.3 -12.0 75 LegendMM LegendMM   99.27     LegendNANA
06:00 -8.6 -12.5 73 LegendMM LegendMM   99.34     LegendNANA
07:00 -8.6 -12.7 73 LegendMM LegendMM   99.39     LegendNANA
08:00 -9.0 -12.9 73 LegendMM LegendMM   99.50     LegendNANA
09:00 -8.3 -12.7 71 LegendMM LegendMM   99.54     LegendNANA
10:00 -7.6 -13.1 65 LegendMM LegendMM   99.59     LegendNANA
11:00 -6.5 -12.6 62 LegendMM LegendMM   99.62     LegendNANA
12:00 -4.5 -10.7 61 LegendMM LegendMM   99.64     LegendNANA
13:00 -3.7 -11.3 56 LegendMM LegendMM   99.62     LegendNANA
14:00 -3.3 -11.5 53 LegendMM LegendMM   99.61     LegendNANA
15:00 -2.6 -10.8 53 LegendMM LegendMM   99.64     LegendNANA
16:00 -2.6 -10.8 53 LegendMM LegendMM   99.69     LegendNANA
17:00 -3.0 -10.8 55 LegendMM LegendMM   99.71     LegendNANA
18:00 -3.6 -10.8 57 LegendMM LegendMM   99.76     LegendNANA
19:00 -4.5 -10.7 62 LegendMM LegendMM   99.83     LegendNANA
20:00 -5.4 -10.7 66 LegendMM LegendMM   99.91     LegendNANA
21:00 -6.1 -10.6 70 LegendMM LegendMM   99.95     LegendNANA
22:00 -6.4 -10.8 71 LegendMM LegendMM   99.95     LegendNANA
23:00 -6.6 -10.7 73 LegendMM LegendMM   99.99     LegendNANA

Notes on Data Quality.

Legend

  • E = Estimated
  • M = Missing
  • NA = Not Available
Date modified: